COSMOS 571

Satellite information

Favourite Embed

Satellite Type and Status

PAYLOADIN ORBIT

Key statistics

Satellite COSMOS 571 at a glance.

Uptime

19133

Days in orbit

Revolutions

≈ 12.7

Per day

Orbit

LEO

Low Earth Orbit

Inclination

74.0

Latest

Satellite identification and parameters

Extended collection of information and parameters for COSMOS 571.

Object identification

Identified? True

Debris? False

Object name: COSMOS 571

International designator: 1973-037H

Object number (NORAD): 6682

Object ID (CCSDS): 6682

Country: COMMONWEALTH OF INDEPENDENT STATES (CIS)

Current information (Y/N): Y

RCS size: MEDIUM

Orbital parameters

Period: 113.751 minutes

Inclination: 74.0189 deg

SMA: 7776.74 km

Apoapsis: 1478.26 km

Periapsis: 1318.951 km

RAAN: 222.0665 deg

Eccentricy: 0.01024267

Argument of periapsis: 27.6327 deg

Mean anomaly: 42.9614 deg

Mean motion: 12.65920319 rev/day

Mean motion (dot): 0.00000011 rev/day2

B* drag term: 0.00014300796 1/REarth

Two-line elements (TLE)

Creation date: Oct. 26, 2025, 2:54 a.m.

Reference frame: TEME

Reference center: EARTH

Epoch: Oct. 25, 2025, 10:53 p.m. UTC

TLE line 0: 0 COSMOS 571

TLE line 1: 1 06682U 73037H 25298.95381285 .00000011 00000-0 14301-3 0 9993

TLE line 2: 2 06682 74.0189 222.0665 0102427 27.6327 42.9614 12.65920319420650

Live tracking on map

Real-time ground track for satellite COSMOS 571.

In-orbit conjunctions

There are no conjunctions computed for COSMOS 571, at the moment. Check back to stay up to date, as we update our databases every day.

Go to all conjunctions

Associated space launch

Military communications satellites

COSMOS 571 was lifted into orbit during the mission ‘Kosmos-3M | Strela-1M 41-48’, on board a Kosmos-3M space rocket.

The launch took place on June 8, 1973, 3:50 p.m. from 132/1 (132L).

For more information about the launch, click the button.

Launch to space Kosmos-3M | Strela-1M 41-48
Kosmos-3M | Strela-1M 41-48

Agency: N/A

Status: Launch Successful

Launch date: June 8, 1973, 3:50 p.m. UTC

Rocket: Kosmos-3M

Launch pad: 132/1 (132L)

Location: Plesetsk Cosmodrome, Russian Federation

...

Latest news about this satellite

There are no fresh news available about this satellite. Check back as we update our databases every day.


Newsletter sign-up

Weekly statistics, charts and insights to help you stay on top of the space industry.